Regional Weather Roundup
Issued by NWS

Home | Current Version | Previous Version | Text Only | Print | Product List | Glossary Off
Versions: 1 2 3 4 5 6 7 8 9 10 11 12 13 14 15 16 17 18 19 20 21 22 23 24 25 26 27 28 29 30 31 32 33 34 35 36 37 38 39 40 41 42 43 44 45 46 47 48 49 50

000
ASUS45 KABQ 221001
RWRNM
NEW MEXICO REGIONAL WEATHER ROUNDUP
NATIONAL WEATHER SERVICE ALBUQUERQUE NM
300 AM MST SUN JAN 22 2017

NOTE: "FAIR" MEANS FEW OR NO CLOUDS BELOW 12,000 FEET AGL WITH NO
       SIGNIFICANT WEATHER OR OBSTRUCTIONS TO VISION.

      THIS PRODUCT IS RELEASED AS TWO VERSIONS.  ONE VERSION NEAR
      THE TOP OF THE HOUR CONTAINING PRELIMINARY DATA FROM ALBUQUERQUE
      AND OTHER STATIONS.  A FINAL VERSION WITH ADDITIONAL DATA IS
      ISSUED ABOUT 10 MINUTES AFTER THE HOUR.

NMZ501-503-504-510>518-221100-
NORTHWEST PLATEAU/NORTHCENTRAL MOUNTAINS

CITY           SKY/WX    TMP DP  RH WIND       PRES   REMARKS
FARMINGTON     FAIR      29  23  78 W13       29.99R WCI  19
LOS ALAMOS     FAIR      28  17  62 NE7       29.91R WCI  21
SANTA FE       MOCLDY    30  20  66 CALM      29.91R
TAOS           FAIR      21  12  68 W8        29.89R WCI  12
ANGEL FIRE     CLOUDY    23  19  83 W6        29.86R WCI  16

$$
NMZ402-403-502-505>509-221100-
WESTCENTRAL MOUNTAINS/SOUTHWEST MOUNTAINS

CITY           SKY/WX    TMP DP  RH WIND       PRES   REMARKS
GALLUP         FAIR      17  13  84 CALM      30.07R
GRANTS         FAIR      26  17  68 NW10G17   30.03R WCI  16
SILVER CITY    FAIR      29  26  88 NW7       30.08R WCI  22

$$
NMZ407-409-411-412-221100-
SOUTHERN DESERTS

CITY           SKY/WX    TMP DP  RH WIND       PRES   REMARKS
DEMING         FAIR      35  29  78 W16       30.07R WCI  25
LAS CRUCES     FAIR      35  28  78 W15G25    30.06R WCI  25
ALAMOGORDO     FAIR      36  23  60 N7        30.03R WCI  30
T OR C         FAIR      34  21  59 CALM      30.03R

$$
NMZ519>523-221100-
CENTRAL VALLEYS/CENTRAL HIGHLANDS

CITY           SKY/WX    TMP DP  RH WIND       PRES   REMARKS
ALBUQUERQUE    FAIR      35  21  56 NW12      29.98R WCI  27
DOUBLE EAGLE   FAIR      31  20  64 NW10      29.98R WCI  22
MORIARTY ARPT  FAIR      31  19  62 NW23G30   29.93R WCI  18
CLINES CORNERS FAIR      25  18  74 NW29G35   29.87R WCI   8
BELEN          FAIR      33  20  59 W5        30.02R WCI  28
SOCORRO        FAIR      36  19  51 NW14G28   30.01R WCI  27

$$
NMZ524>526-539-540-221100-
SOUTHCENTRAL MOUNTAINS

CITY           SKY/WX    TMP DP  RH WIND       PRES   REMARKS
RUIDOSO        NOT AVBL

$$
NMZ527>531-221100-
NORTHEAST HIGHLANDS/NORTHEAST PLAINS

CITY           SKY/WX    TMP DP  RH WIND       PRES   REMARKS
LAS VEGAS      FAIR      29  15  56 N15       29.80R WCI  18
RATON          FAIR      30  20  66 N12       29.76R WCI  20
CLAYTON        FAIR      33  31  92 NW16      29.72R WCI  23

$$
NMZ532>537-221100-
EASTCENTRAL PLAINS

CITY           SKY/WX    TMP DP  RH WIND       PRES   REMARKS
TUCUMCARI      FAIR      34  25  69 W10       29.76R WCI  26
CANNON AFB     FAIR      37  27  66 NW20      29.75R WCI  27
CLOVIS AIRPORT FAIR      36  25  64 NW14      29.75R WCI  27

$$
NMZ028-029-538-221100-
SOUTHEAST PLAINS

CITY           SKY/WX    TMP DP  RH WIND       PRES   REMARKS
ROSWELL        FAIR      45  19  35 NW24G36   29.78R
ARTESIA        FAIR      45  19  36 NW22G28   29.82R
CARLSBAD       FAIR      43  22  43 NW18      29.84R


$$




USA.gov is the U.S. government's official web portal to all federal, state and local government web resources and services.